STARLINK-1156, 45054

Orbit data source: Space-Track

STARLINK-1156, 45054 is a payload satellite owned by SpaceX/Seattle (US) in LEO that was launched on Wed, 29 Jan 2020 UTC via an FALCON 9 launch vehicle from the Air Force Eastern Test Range (AFETR). Payload-class satellites include a variety of spacecraft equipped with specific instruments for various scientific and technological missions. These include communications satellites like Starlink; space stations such as the ISS; scientific satellites like the Hubble; Earth observation satellites from companies like Planet Labs, Umbra, and HawkEye 360; GPS; miniature CubeSats for education and research; and military/defense satellites.

Loading next visibility...
Identifier
45054, 2020-006L
Orbit
LEO
Country
Flag of USUS
Related business
Manufacturer
SpaceX/Seattle
Mission
Operational Commercial Communications
Bus & Motor
STARLINK, Unknown motor
Mass
260 kg wet, ~248 kg dry
Launch date (UTC)
2020-01-29 (6 years ago)
Launch vehicle
FALCON 9
Launch site
Air Force Eastern Test Range (AFETR)
Object type
Payload
Rocket body
Debris
Shape & HBR
Box + 1 Pan, 10.1 m
Radar Cross Section
13.562 m², Large (>1 m²)

Expand to show TLE details & history
Last TLE update: 1 day ago

TLE from 1 day ago
0 STARLINK-1156
1 45054U 20006L   25312.78218461  .00001076  00000-0  91160-4 0  9991
2 45054  53.0541 109.3928 0001384  87.6483 272.4664 15.06394912318230
Epoch: 2025-11-08T18:46Z
TLE epoch observation values (Epoch: 2025-11-08T18:46:20.750Z)
Latitude
-0.00005°
Longitude
139.59945°
Altitude
548.065 km
Speed
7.589 km/s
True Right ascension
07h 17m 34s
True Declination
0° 00' 00"
Sunlit
Object was in full shadow at epoch
Visualization orbit readout
Latitude
Unknown
Longitude
Unknown
Altitude
Unknown
Speed
Unknown
Apparent Right ascension
Unknown
Apparent Declination
Unknown
Sunlit
N/A
Visualization observer readout
Local Sidereal Time
18:45:40
Azimuth
Unknown
Elevation
Unknown
Doppler factor
Unknown
Orbital elements
Apogee altitude
548.456 km
Perigee altitude
546.539 km
Semi-major axis
6,925.635 km
Eccentricity
0.00014
Inclination
53.0541°
RAAN
109.3928°
Arg. of periapsis
87.6483°
True anomaly
272.45056°
Mean anomaly
272.4664°
Eccentric anomaly
272.45848°
Mean motion
3.76577 °/min
Orbital period
95.6 mins
BSTAR
0.00009116
Loading maneuver chart data...
Computing Atmospheric mass density...

Documentation

Showing up to 5 results
|